GW1286 Weather Reports


time (UTC)temp
C
wind
direction
speed
KPH
gust
KPH
rain 1hr
cm
rain 24hr
cm
rain mn
cm
humidity
%
barometer
mb
20260506193048 14 199 6.4 19.3 0.03 1.85 1.70 93 1005.0
20260506192533 14 179 6.4 17.7 0.03 1.85 1.70 93 1005.2
20260506192034 14 242 6.4 17.7 0.05 1.85 1.70 93 1005.3
20260506191545 14 192 3.2 16.1 0.08 1.85 1.70 93 1005.3
20260506191032 14 194 3.2 16.1 0.08 1.85 1.70 94 1005.2
20260506190532 14 205 8.0 16.1 0.08 1.85 1.70 94 1005.3
20260506190050 14 202 3.2 17.7 0.08 1.85 1.70 94 1005.3
20260506185531 14 207 8.0 17.7 0.10 1.85 1.70 94 1005.3
20260506185031 14 244 4.8 19.3 0.10 1.85 1.70 94 1005.4
20260506184546 13 198 4.8 20.9 0.13 1.85 1.70 94 1005.4
20260506184032 13 209 9.7 20.9 0.10 1.83 1.68 94 1005.4
20260506183532 13 207 4.8 16.1 0.13 1.83 1.68 94 1005.5
20260506183045 13 217 4.8 14.5 0.15 1.83 1.68 94 1005.4
20260506182531 13 167 4.8 16.1 0.18 1.83 1.68 94 1005.5
20260506182031 13 205 3.2 16.1 0.18 1.80 1.65 94 1005.6
20260506181548 13 188 6.4 16.1 0.18 1.78 1.63 94 1005.7
20260506181032 13 169 6.4 16.1 0.20 1.78 1.63 94 1005.7
20260506180534 13 197 4.8 16.1 0.23 1.78 1.63 94 1005.7
20260506175533 13 227 3.2 19.3 0.28 1.75 1.60 94 1005.8
20260506175031 13 212 4.8 19.3 0.30 1.75 1.60 94 1005.8
20260506174544 13 196 6.4 19.3 0.30 1.73 1.57 94 1005.8
20260506174031 13 224 6.4 14.5 0.33 1.73 1.57 94 1005.7
20260506173531 13 200 4.8 14.5 0.36 1.70 1.55 94 1005.8
20260506173051 13 213 4.8 14.5 0.36 1.68 1.52 94 1005.8
20260506172532 13 200 4.8 16.1 0.36 1.65 1.47 94 1005.8
20260506172031 13 206 6.4 17.7 0.36 1.63 1.47 94 1005.8
20260506171550 13 227 6.4 17.7 0.36 1.60 1.45 94 1005.8
20260506171034 13 214 8.0 19.3 0.36 1.57 1.42 94 1005.7
20260506170531 13 202 3.2 19.3 0.36 1.55 1.40 94 1005.7
20260506170058 13 209 4.8 16.1 0.30 1.47 1.32 94 1005.8
20260506165531 13 217 4.8 16.1 0.30 1.47 1.32 94 1005.7
20260506165032 13 246 4.8 14.5 0.30 1.45 1.30 93 1005.7
20260506164541 13 229 4.8 14.5 0.28 1.42 1.27 93 1005.9
20260506164032 13 218 4.8 14.5 0.25 1.37 1.22 93 1005.8
20260506163531 13 221 6.4 19.3 0.25 1.32 1.19 93 1005.9
20260506163105 13 221 3.2 19.3 0.25 1.32 1.17 93 1005.8
20260506162533 13 202 4.8 19.3 0.23 1.27 1.12 94 1005.8
20260506162034 13 193 4.8 14.5 0.25 1.27 1.12 94 1005.8
20260506161545 13 249 3.2 16.1 0.25 1.24 1.09 94 1005.8
20260506161032 13 211 6.4 16.1 0.25 1.22 1.07 94 1006.0
20260506160532 13 212 3.2 12.9 0.25 1.19 1.04 94 1006.1
20260506160045 13 212 3.2 12.9 0.28 1.19 1.04 94 1006.1
20260506155531 13 254 3.2 12.9 0.28 1.17 1.02 94 1006.2
20260506155032 13 211 3.2 22.5 0.28 1.14 0.99 94 1006.2
20260506154607 13 0 1.6 22.5 0.28 1.12 0.97 94 1006.2
20260506154033 13 204 3.2 14.5 0.30 1.12 0.97 94 1006.1
20260506153531 13 270 3.2 20.9 0.33 1.09 0.94 94 1006.1
20260506153051 13 169 6.4 20.9 0.30 1.07 0.91 94 1006.2
20260506152531 13 194 4.8 16.1 0.30 1.04 0.89 94 1006.3
20260506152031 13 198 4.8 11.3 0.30 1.02 0.86 94 1006.3
20260506151548 13 188 4.8 11.3 0.30 0.99 0.84 94 1006.5
20260506151031 13 217 4.8 12.9 0.30 0.97 0.81 94 1006.4
20260506150531 13 226 3.2 16.1 0.30 0.94 0.79 94 1006.6
20260506150045 13 0 4.8 19.3 0.30 0.91 0.76 94 1006.6
20260506145532 13 178 4.8 19.3 0.30 0.89 0.74 95 1006.6
20260506145030 13 249 6.4 19.3 0.30 0.86 0.71 95 1006.8
20260506144542 13 207 8.0 19.3 0.30 0.84 0.69 95 1006.7
20260506144032 13 249 3.2 16.1 0.28 0.79 0.64 95 1006.8
20260506143534 13 190 1.6 16.1 0.28 0.76 0.61 95 1006.8
20260506143104 13 202 4.8 16.1 0.30 0.76 0.61 95 1006.8
20260506142531 13 165 1.6 14.5 0.30 0.74 0.58 95 1007.0
20260506142031 13 238 6.4 14.5 0.28 0.71 0.56 95 1007.1
20260506141547 13 171 4.8 14.5 0.25 0.69 0.53 95 1007.1
20260506141034 13 160 3.2 12.9 0.25 0.66 0.51 95 1007.2
20260506140533 13 226 3.2 12.9 0.23 0.64 0.48 95 1007.2
20260506140045 12 187 3.2 12.9 0.20 0.61 0.46 95 1007.2
20260506135534 12 0 3.2 8.0 0.18 0.58 0.43 95 1007.2
20260506135031 12 296 3.2 8.0 0.15 0.56 0.41 95 1007.1
20260506134545 12 178 3.2 9.7 0.15 0.53 0.38 95 1007.1
20260506134031 12 235 1.6 9.7 0.13 0.51 0.36 95 1007.2
20260506133531 12 0 3.2 9.7 0.13 0.48 0.33 95 1007.2
20260506133043 12 0 1.6 11.3 0.10 0.46 0.30 95 1007.3
20260506132532 12 0 3.2 11.3 0.10 0.43 0.28 95 1007.2
20260506132031 12 286 1.6 4.8 0.13 0.43 0.28 95 1007.0
20260506131546 12 0 1.6 4.8 0.15 0.43 0.28 95 1006.9
20260506131032 12 288 0.0 3.2 0.13 0.41 0.25 95 1007.1
20260506130531 12 0 0.0 3.2 0.13 0.41 0.25 95 1007.2
20260506130043 11 40 0.0 3.2 0.15 0.41 0.25 95 1007.2
20260506125531 11 40 0.0 3.2 0.15 0.41 0.25 95 1007.2
20260506125035 11 40 0.0 3.2 0.15 0.41 0.25 95 1007.1
20260506124543 11 0 0.0 3.2 0.15 0.38 0.23 95 1007.1
20260506124032 11 40 1.6 3.2 0.15 0.38 0.23 95 1007.1
20260506123532 11 40 0.0 1.6 0.15 0.36 0.20 95 1007.0
20260506123048 11 40 0.0 1.6 0.15 0.36 0.20 95 1007.1
20260506122532 11 0 0.0 3.2 0.13 0.33 0.18 95 1007.3
20260506122031 11 0 0.0 3.2 0.10 0.30 0.15 95 1007.3
20260506121546 11 40 0.0 3.2 0.08 0.28 0.13 95 1007.3
20260506121031 11 0 0.0 0.0 0.10 0.28 0.13 95 1007.6
20260506120531 11 0 0.0 0.0 0.10 0.28 0.13 95 1007.8
20260506120055 11 0 0.0 1.6 0.08 0.25 0.10 95 1007.9
20260506115530 11 0 0.0 1.6 0.08 0.25 0.10 95 1008.0
20260506115030 11 0 0.0 1.6 0.08 0.25 0.10 95 1008.1
20260506114553 11 0 0.0 1.6 0.08 0.23 0.08 95 1008.1
20260506114032 11 0 0.0 1.6 0.08 0.23 0.08 95 1008.3
20260506113530 11 0 0.0 1.6 0.05 0.20 0.05 95 1008.0
20260506113047 11 0 0.0 1.6 0.05 0.20 0.05 95 1008.0
20260506112533 11 0 0.0 1.6 0.05 0.20 0.05 95 1007.9
20260506112032 11 0 0.0 1.6 0.05 0.20 0.05 95 1007.8
20260506111549 10 0 0.0 1.6 0.05 0.20 0.05 95 1007.8
20260506111031 10 0 0.0 1.6 0.03 0.18 0.03 95 1007.7
20260506110531 10 0 0.0 3.2 0.03 0.18 0.03 95 1007.6
20260506110054 10 0 0.0 3.2 0.03 0.18 0.03 95 1007.5
20260506105531 10 0 0.0 4.8 0.03 0.18 0.03 95 1007.2
20260506105032 10 0 1.6 4.8 0.03 0.18 0.03 95 1007.3
20260506104546 10 344 1.6 4.8 0.00 0.15 0.00 95 1007.4
20260506104032 10 234 3.2 4.8 0.00 0.15 0.00 95 1007.4
20260506103531 10 0 0.0 3.2 0.00 0.15 0.00 95 1007.0
20260506103048 10 0 0.0 3.2 0.00 0.15 0.00 95 1007.4
20260506102532 10 11 0.0 3.2 0.00 0.15 0.00 95 1007.3
20260506102032 10 0 0.0 4.8 0.00 0.15 0.00 95 1007.3
20260506101556 10 0 0.0 4.8 0.00 0.15 0.00 95 1007.2
20260506101031 10 11 0.0 4.8 0.00 0.15 0.00 95 1007.1
20260506100532 10 11 0.0 1.6 0.00 0.15 0.00 95 1007.2
20260506100048 10 0 0.0 1.6 0.00 0.15 0.00 95 1007.0
20260506095531 10 0 0.0 3.2 0.00 0.15 0.00 95 1006.9
20260506095031 10 0 0.0 3.2 0.00 0.15 0.00 95 1007.1
20260506094606 10 0 0.0 3.2 0.00 0.15 0.00 95 1007.1
20260506094032 10 0 0.0 3.2 0.00 0.15 0.00 95 1007.2
20260506093536 10 0 0.0 3.2 0.00 0.15 0.00 95 1007.1
20260506093049 10 11 0.0 1.6 0.00 0.15 0.00 95 1006.9
20260506092531 10 0 0.0 3.2 0.00 0.15 0.00 95 1007.1
20260506092031 10 0 0.0 3.2 0.00 0.15 0.00 95 1007.1
20260506091542 10 0 0.0 3.2 0.00 0.15 0.00 95 1007.2
20260506091031 10 0 0.0 3.2 0.00 0.15 0.00 95 1006.9
20260506090531 10 0 0.0 3.2 0.00 0.15 0.00 95 1007.0
20260506090042 10 0 0.0 4.8 0.00 0.15 0.00 95 1007.1
20260506085530 10 11 0.0 4.8 0.00 0.15 0.00 95 1007.1
20260506085030 10 11 0.0 3.2 0.00 0.15 0.00 95 1007.1
20260506084541 10 0 0.0 3.2 0.00 0.15 0.00 95 1007.2
20260506084031 10 11 0.0 3.2 0.00 0.15 0.00 95 1007.3
20260506083531 10 0 0.0 3.2 0.00 0.15 0.00 95 1007.2
20260506083049 10 0 0.0 3.2 0.00 0.15 0.00 95 1007.4
20260506082533 10 11 0.0 1.6 0.00 0.15 0.00 95 1007.3
20260506082033 10 0 0.0 1.6 0.00 0.15 0.00 95 1007.4
20260506081547 10 0 0.0 1.6 0.00 0.15 0.00 95 1007.5
20260506081034 10 0 0.0 3.2 0.00 0.15 0.00 95 1007.7
20260506080533 10 0 0.0 3.2 0.00 0.15 0.00 95 1007.7
20260506073047 10 0 0.0 1.6 0.00 0.15 0.00 95 1007.8
20260506072532 10 0 0.0 1.6 0.00 0.15 0.00 94 1008.0
20260506072034 10 0 0.0 1.6 0.00 0.15 0.00 94 1008.0
20260506071550 10 0 0.0 3.2 0.00 0.15 0.00 94 1008.0
20260506071032 10 0 0.0 3.2 0.00 0.15 0.00 94 1008.0
20260506070533 10 0 0.0 3.2 0.00 0.15 0.00 95 1008.1
20260506062033 10 0 0.0 3.2 0.00 0.15 0.00 94 1008.5
20260506061547 10 0 0.0 3.2 0.00 0.15 0.00 94 1008.6
20260506061033 10 0 0.0 3.2 0.00 0.15 0.00 94 1008.6
20260506060534 10 0 0.0 1.6 0.00 0.15 0.00 94 1008.6
20260506051032 11 0 0.0 1.6 0.00 0.15 0.00 94 1008.9
20260506050533 11 0 0.0 1.6 0.00 0.15 0.00 94 1008.9
20260506045032 11 0 0.0 3.2 0.00 0.15 0.00 94 1009.1
20260506044551 11 0 0.0 3.2 0.00 0.15 0.00 93 1009.1
20260506044034 11 11 0.0 3.2 0.03 0.15 0.00 94 1009.0
20260506043536 11 11 0.0 3.2 0.03 0.15 0.00 93 1009.1
20260506043046 12 11 0.0 1.6 0.03 0.15 0.00 93 1009.1
20260506042532 12 11 0.0 1.6 0.03 0.15 0.00 94 1009.1
20260506042033 12 0 0.0 1.6 0.03 0.15 0.00 93 1009.1
20260506041541 12 0 0.0 1.6 0.03 0.15 0.00 93 1009.1
20260506041032 12 0 0.0 1.6 0.03 0.15 0.00 93 1009.1
20260506040621 12 0 0.0 1.6 0.03 0.15 0.00 93 1009.3
20260506040058 12 0 0.0 1.6 0.03 0.15 0.00 93 1009.3
20260506035532 12 0 0.0 3.2 0.03 0.15 0.15 93 1009.2
20260506035030 12 0 0.0 3.2 0.03 0.15 0.15 93 1009.1
20260506034543 12 11 1.6 3.2 0.03 0.15 0.15 93 1009.0
20260506034029 13 11 0.0 3.2 0.00 0.13 0.13 93 1009.1
20260506033531 13 0 1.6 3.2 0.00 0.13 0.13 93 1008.9
20260506033047 13 0 1.6 6.4 0.00 0.13 0.13 93 1009.0
20260506032531 13 63 0.0 6.4 0.00 0.13 0.13 93 1008.9
20260506032033 13 316 1.6 4.8 0.00 0.13 0.13 93 1008.8
20260506031555 13 268 1.6 4.8 0.00 0.13 0.13 93 1008.9
20260506031031 13 0 0.0 3.2 0.00 0.13 0.13 93 1008.6
20260506030532 13 0 0.0 1.6 0.00 0.13 0.13 93 1009.0
20260506030045 13 0 0.0 1.6 0.03 0.13 0.13 93 1008.9
20260506025531 13 0 0.0 3.2 0.08 0.13 0.13 92 1008.8
20260506025030 13 0 0.0 3.2 0.10 0.13 0.13 92 1008.9
20260506024543 13 0 1.6 4.8 0.10 0.13 0.13 92 1008.7
20260506024031 13 0 0.0 4.8 0.10 0.13 0.13 92 1008.9
20260506023532 13 296 0.0 4.8 0.10 0.13 0.13 92 1008.8
20260506023044 13 306 1.6 4.8 0.10 0.13 0.13 91 1008.7
20260506022532 13 306 0.0 3.2 0.10 0.13 0.13 91 1008.6
20260506022031 13 306 0.0 4.8 0.10 0.13 0.13 91 1008.7
20260506021550 13 306 1.6 4.8 0.10 0.13 0.13 90 1008.7
20260506021033 13 0 0.0 3.2 0.10 0.13 0.13 90 1008.8
20260506020534 14 0 0.0 3.2 0.10 0.13 0.13 89 1008.9
20260506020041 14 306 0.0 3.2 0.08 0.10 0.10 88 1009.0
20260506015532 14 0 0.0 3.2 0.03 0.05 0.05 87 1009.1
20260506015032 14 0 0.0 3.2 0.00 0.03 0.03 86 1008.8
20260506014543 14 0 0.0 0.0 0.00 0.03 0.03 86 1008.6
20260506014031 14 0 0.0 0.0 0.00 0.03 0.03 86 1008.5
20260506013531 14 0 0.0 1.6 0.00 0.03 0.03 86 1008.3
20260506013045 14 0 0.0 1.6 0.00 0.03 0.03 85 1008.4
20260506012530 15 0 0.0 1.6 0.00 0.03 0.03 85 1008.4
20260506012035 15 0 0.0 0.0 0.00 0.03 0.03 85 1008.3
20260506011544 15 0 0.0 3.2 0.00 0.03 0.03 85 1008.2
20260506011032 15 0 0.0 3.2 0.00 0.03 0.03 84 1008.2
20260506010531 15 0 0.0 3.2 0.00 0.03 0.03 83 1008.1
20260506010046 15 0 1.6 3.2 0.00 0.03 0.03 83 1008.2
20260506005532 15 0 0.0 3.2 0.00 0.03 0.03 83 1008.2
20260506005032 15 0 0.0 3.2 0.00 0.03 0.03 81 1008.2
20260506004541 15 0 0.0 3.2 0.00 0.03 0.03 81 1008.2
20260506004032 15 306 0.0 3.2 0.00 0.03 0.03 80 1008.1
20260506003532 15 0 0.0 3.2 0.00 0.03 0.03 79 1008.1
20260506003042 15 0 1.6 3.2 0.00 0.03 0.03 80 1008.1
20260506002532 16 0 0.0 3.2 0.00 0.03 0.03 80 1008.0
20260506002031 16 0 0.0 1.6 0.00 0.03 0.03 79 1008.1
20260506001547 16 0 0.0 3.2 0.00 0.03 0.03 77 1008.0
20260506001031 16 306 0.0 3.2 0.00 0.03 0.03 77 1008.0
20260506000531 16 306 0.0 3.2 0.00 0.03 0.03 77 1007.9
20260506000046 16 0 0.0 8.0 0.00 0.03 0.03 76 1007.9
20260505235531 16 0 1.6 8.0 0.00 0.03 0.03 75 1008.0
20260505235031 16 316 1.6 8.0 0.00 0.03 0.03 72 1007.8
20260505234553 16 298 1.6 4.8 0.00 0.03 0.03 71 1007.8
20260505234032 16 0 0.0 6.4 0.00 0.03 0.03 71 1007.7
20260505233529 16 287 1.6 6.4 0.00 0.03 0.03 71 1007.8
20260505233044 16 0 0.0 4.8 0.00 0.03 0.03 72 1007.6
20260505232531 16 240 1.6 9.7 0.00 0.03 0.03 72 1007.5
20260505232032 16 223 0.0 9.7 0.00 0.03 0.03 72 1007.5
20260505231547 16 223 1.6 9.7 0.00 0.03 0.03 73 1007.4
20260505231033 16 192 1.6 4.8 0.00 0.03 0.03 76 1007.3
20260505230531 16 0 0.0 4.8 0.00 0.03 0.03 78 1007.3
20260505230048 16 232 0.0 4.8 0.00 0.03 0.03 81 1007.3
20260505225532 16 0 0.0 3.2 0.00 0.03 0.03 80 1007.5
20260505225031 16 323 0.0 3.2 0.00 0.03 0.03 80 1007.4
20260505224543 16 0 0.0 3.2 0.00 0.03 0.03 79 1007.5
20260505224032 16 0 0.0 3.2 0.00 0.03 0.03 80 1007.5
20260505223532 16 323 1.6 3.2 0.00 0.03 0.03 80 1007.3
20260505223051 16 323 0.0 4.8 0.00 0.03 0.03 80 1007.1
20260505222533 16 323 0.0 4.8 0.00 0.03 0.03 81 1007.0
20260505222031 16 310 1.6 4.8 0.03 0.03 0.03 81 1007.1
20260505221551 16 0 1.6 4.8 0.03 0.03 0.03 82 1007.1
20260505221031 16 232 0.0 3.2 0.03 0.03 0.03 83 1007.3
20260505220531 16 0 0.0 3.2 0.03 0.03 0.03 80 1007.7
20260505220047 16 232 0.0 6.4 0.03 0.03 0.03 78 1007.9
20260505215532 16 232 0.0 6.4 0.03 0.03 0.03 79 1007.9
20260505215032 16 0 1.6 6.4 0.03 0.03 0.03 77 1007.9
20260505214550 16 128 1.6 25.7 0.03 0.03 0.03 76 1007.9
20260505214032 16 221 3.2 25.7 0.03 0.03 0.03 76 1007.9
20260505213531 17 334 4.8 27.4 0.03 0.03 0.03 71 1007.8
20260505213046 17 325 6.4 33.8 0.03 0.03 0.03 69 1007.8
20260505212534 18 298 12.9 33.8 0.03 0.03 0.03 62 1007.8
20260505212032 21 178 17.7 33.8 0.00 0.00 0.00 51 1007.7
20260505211551 23 256 4.8 48.3 0.00 0.00 0.00 31 1006.8
20260505211033 23 84 6.4 48.3 0.00 0.00 0.00 32 1005.9
20260505210533 23 225 4.8 27.4 0.00 0.00 0.00 32 1005.7
20260505210048 23 256 6.4 22.5 0.00 0.00 0.00 34 1005.5
20260505205533 23 246 8.0 29.0 0.00 0.00 0.00 34 1005.3
20260505205033 23 157 6.4 29.0 0.00 0.00 0.00 33 1005.1
20260505204548 23 186 6.4 35.4 0.00 0.00 0.00 32 1005.0
20260505204032 23 209 16.1 35.4 0.00 0.00 0.00 32 1005.0
20260505203532 23 168 16.1 35.4 0.00 0.00 0.00 32 1004.9
20260505203048 23 232 9.7 29.0 0.00 0.00 0.00 32 1005.1
20260505202534 23 165 11.3 32.2 0.00 0.00 0.00 32 1005.1
20260505202035 23 242 8.0 32.2 0.00 0.00 0.00 32 1005.1
20260505201553 24 244 11.3 32.2 0.00 0.00 0.00 30 1005.2
20260505201032 24 207 8.0 25.7 0.00 0.00 0.00 28 1005.2
20260505200532 24 200 9.7 30.6 0.00 0.00 0.00 27 1005.2
20260505200047 24 133 12.9 40.2 0.00 0.00 0.00 27 1005.3
20260505195535 24 158 14.5 43.5 0.00 0.00 0.00 26 1005.1
20260505195031 24 192 17.7 54.7 0.00 0.00 0.00 26 1004.8
20260505194600 24 196 20.9 54.7 0.00 0.00 0.00 28 1005.0
20260505194032 24 207 17.7 54.7 0.00 0.00 0.00 29 1004.8
20260505193532 24 204 17.7 37.0 0.00 0.00 0.00 31 1005.3